Regional Weather Roundup
Issued by NWS

Home | Current Version | Previous Version | Graphics & Text | Print | Product List | Glossary On
Versions: 1 2 3 4 5 6 7 8 9 10 11 12 13 14 15 16 17 18 19 20 21 22 23 24 25 26 27 28 29 30 31 32 33 34 35 36 37 38 39 40 41 42 43 44 45 46 47 48 49 50
627
ASUS43 KLSX 302310
RWRMO

WEATHER SUMMARY FOR MISSOURI
NATIONAL WEATHER SERVICE SPRINGFIELD MO
600 PM CDT SAT JUL 30 2016

NOTE: "FAIR" INDICATES FEW OR NO CLOUDS BELOW 12,000 FEET WITH NO
       SIGNIFICANT WEATHER AND/OR OBSTRUCTIONS TO VISIBILITY.
       CURRENT SKY AND/OR WEATHER CONDITIONS ARE NOT AVAILABLE FOR
       CHILLICOTHE AND FARMINGTON.

MOZ001>031-035>038-043-044-053-054-310000-
...NORTHERN AND WESTERN MISSOURI...

CITY           SKY/WX    TMP DP  RH WIND       PRES   REMARKS
KANSAS CTY INT MOSUNNY   84  65  52 NE6       29.95F
KANSAS C DTWN  SUNNY     86  66  51 E10       29.92F
LEE`S SUMMIT   MOSUNNY   83  67  58 NE6       29.95F
ST JOSEPH      SUNNY     82  65  56 CALM      29.96F
CHILLICOTHE      N/A     85  66  53 N6        29.97F
KIRKSVILLE     MOSUNNY   82  63  52 VRB5      29.98F

$$
MOZ066>068-077>081-088>096-101>105-310000-
...SOUTHWEST MISSOURI...

CITY           SKY/WX    TMP DP  RH WIND       PRES   REMARKS
SPRINGFIELD    CLOUDY    83  69  62 NE9       29.96S
JOPLIN         MOSUNNY   87  68  52 SE6       29.95R HX  90
BRANSON        PTSUNNY   81  72  74 S7        29.98F

$$
MOZ032>034-039>042-045>050-055>058-069>072-310000-
...CENTRAL MISSOURI...

CITY           SKY/WX    TMP DP  RH WIND       PRES   REMARKS
COLUMBIA       SUNNY     82  65  56 NW6       29.97F
JEFFERSON CITY SUNNY     84  63  49 NW6       29.95F
ROLLA          MOSUNNY   83  65  54 NW7       29.98R
SEDALIA        SUNNY     82  68  62 N6        29.97F
WHITEMAN AFB   MOSUNNY   84  67  55 NE5       29.94F
OSAGE BEACH    CLOUDY    84  67  56 NE7       29.97F

$$
MOZ051-052-059>065-310000-
...EAST CENTRAL MISSOURI...

CITY           SKY/WX    TMP DP  RH WIND       PRES   REMARKS
ST LOUIS INTL  MOSUNNY   83  65  54 N9        29.97S
SPIRIT OF STL  MOSUNNY   85  66  53 NW8       29.95S
ST CHARLES     SUNNY     82  67  60 NW5       29.95S

$$
MOZ072>076-082>087-097>100-106>115-310000-
...SOUTH CENTRAL AND SOUTHEAST MISSOURI...

CITY           SKY/WX    TMP DP  RH WIND       PRES   REMARKS
CAPE GIRARDEAU CLOUDY    84  70  62 SW6       29.93F
FARMINGTON     MOSUNNY   84  66  54 VRB3      29.98F
POPLAR BLUFF   CLOUDY    85  73  67 SE3       29.93F HX  91
WEST PLAINS    CLOUDY    83  68  60 CALM      30.00F

$$




USA.gov is the U.S. government's official web portal to all federal, state and local government web resources and services.